This demonstration page uses our WeatherBlox Daily Observations layout. Learn more.

Hourly Observations for December 5, 2018

Temp ( °F °C ) Dew Point ( °F °C ) Humidity (%) Winds ( mph kmh ) Pressure ( in mb ) Visibility ( mi km ) Precip ( " mm )
12:15 am 00:15 Partly Cloudy 32 0 27 -3 80 80 NNE 3 6 30.12 1020 10 16.09344 0 0
12:35 am 00:35 Mostly Cloudy 30 -1 28 -2 93 93 Calm 30.12 1020 10 16.09344 0 0
12:55 am 00:55 Mostly Cloudy 30 -1 28 -2 93 93 N 3 6 30.12 1020 10 16.09344 0 0
1:15 am 01:15 Partly Cloudy 32 0 27 -3 80 80 Calm 30.12 1020 10 16.09344 0 0
1:35 am 01:35 Mostly Cloudy 30 -1 28 -2 93 93 Calm 30.12 1020 10 16.09344 0 0
1:55 am 01:55 Cloudy 30 -1 28 -2 93 93 Calm 30.12 1020 10 16.09344 0 0
2:15 am 02:15 Cloudy 30 -1 28 -2 93 93 Calm 30.12 1020 10 16.09344 0 0
2:35 am 02:35 Partly Cloudy 30 -1 28 -2 93 93 Calm 30.12 1020 10 16.09344 0 0
2:55 am 02:55 Partly Cloudy 30 -1 28 -2 93 93 Calm 30.12 1020 10 16.09344 0 0
3:15 am 03:15 Clear 30 -1 28 -2 93 93 Calm 30.12 1020 10 16.09344 0 0
3:35 am 03:35 Mostly Cloudy 30 -1 28 -2 93 93 NW 3 6 30.12 1020 10 16.09344 0 0
3:55 am 03:55 Cloudy 30 -1 28 -2 93 93 NNW 5 7 30.09 1019 10 16.09344 0 0
4:15 am 04:15 Cloudy 32 0 27 -3 80 80 N 5 7 30.09 1019 10 16.09344 0 0
4:35 am 04:35 Cloudy 32 0 27 -3 80 80 N 3 6 30.09 1019 10 16.09344 0 0
4:55 am 04:55 Cloudy 32 0 27 -3 80 80 N 5 7 30.09 1019 10 16.09344 0 0
5:15 am 05:15 Cloudy 32 0 27 -3 80 80 N 3 6 30.09 1019 10 16.09344 0 0
5:35 am 05:35 Cloudy 32 0 27 -3 80 80 NNE 3 6 30.09 1019 10 16.09344 0 0
5:55 am 05:55 Cloudy 32 0 27 -3 80 80 NE 5 7 30.09 1019 10 16.09344 0 0
6:15 am 06:15 Cloudy 32 0 27 -3 80 80 NE 6 9 30.09 1019 10 16.09344 0 0
6:35 am 06:35 Cloudy 32 0 25 -4 75 75 NE 5 7 30.12 1020 10 16.09344 0 0
6:55 am 06:55 Cloudy 32 0 25 -4 75 75 NE 7 11 30.12 1020 10 16.09344 0 0
7:15 am 07:15 Cloudy 32 0 25 -4 75 75 NE 6 9 30.12 1020 10 16.09344 0 0
7:35 am 07:35 Cloudy 32 0 25 -4 75 75 NE 5 7 30.12 1020 10 16.09344 0 0
7:55 am 07:55 Cloudy 32 0 25 -4 75 75 NNE 5 7 30.12 1020 10 16.09344 0 0
8:15 am 08:15 Cloudy 32 0 27 -3 80 80 NE 6 9 30.12 1020 10 16.09344 0 0
8:35 am 08:35 Cloudy 32 0 27 -3 80 80 NNE 3 6 30.12 1020 10 16.09344 0 0
8:55 am 08:55 Cloudy 32 0 25 -4 75 75 NE 5 7 30.12 1020 10 16.09344 0 0
9:15 am 09:15 Cloudy 32 0 27 -3 80 80 NE 5 7 30.12 1020 10 16.09344 0 0
9:35 am 09:35 Cloudy 32 0 27 -3 80 80 Calm 30.15 1021 10 16.09344 0 0
9:55 am 09:55 Cloudy 32 0 27 -3 80 80 Calm 30.15 1021 10 16.09344 0 0
10:15 am 10:15 Cloudy 32 0 27 -3 80 80 NNW 3 6 30.15 1021 10 16.09344 0 0
10:35 am 10:35 Cloudy 34 1 27 -3 75 75 NNW 3 6 30.15 1021 10 16.09344 0 0
10:55 am 10:55 Cloudy 34 1 25 -4 70 70 NNW 5 7 30.15 1021 10 16.09344 0 0
11:15 am 11:15 Cloudy 34 1 23 -5 65 65 Calm 30.12 1020 10 16.09344 0 0
11:35 am 11:35 Cloudy 36 2 25 -4 65 65 N 3 6 30.12 1020 10 16.09344 0 0
11:55 am 11:55 Cloudy 36 2 27 -3 70 70 Calm 30.12 1020 10 16.09344 0 0
12:15 pm 12:15 Cloudy 36 2 27 -3 70 70 WNW 6 9 30.12 1020 10 16.09344 0 0
12:35 pm 12:35 Cloudy 36 2 27 -3 70 70 Calm 30.12 1020 10 16.09344 0 0
12:55 pm 12:55 Cloudy 36 2 27 -3 70 70 NE 5 7 30.12 1020 10 16.09344 0 0
1:15 pm 13:15 Cloudy 36 2 28 -2 75 75 NNE 5 7 30.12 1020 10 16.09344 0 0
1:35 pm 13:35 Cloudy 37 3 28 -2 70 70 N 7 11 30.12 1020 10 16.09344 0 0
1:55 pm 13:55 Cloudy 37 3 30 -1 75 75 NW 3 6 30.09 1019 10 16.09344 0 0
2:15 pm 14:15 Cloudy 37 3 28 -2 70 70 WNW 6 9 30.09 1019 10 16.09344 0 0
2:35 pm 14:35 Cloudy 37 3 30 -1 75 75 Calm 30.12 1020 10 16.09344 0 0
2:55 pm 14:55 Cloudy 37 3 28 -2 70 70 NW 6 9 30.12 1020 10 16.09344 0 0
3:15 pm 15:15 Cloudy 37 3 28 -2 70 70 NNW 8 13 30.12 1020 10 16.09344 0 0
3:35 pm 15:35 Cloudy 37 3 30 -1 75 75 NW 8 13 30.12 1020 10 16.09344 0 0
3:55 pm 15:55 Cloudy 36 2 30 -1 81 81 WNW 9 15 30.12 1020 10 16.09344 0 0
4:15 pm 16:15 Cloudy 36 2 30 -1 81 81 NW 6 9 30.15 1021 10 16.09344 0 0
4:35 pm 16:35 Cloudy 36 2 30 -1 81 81 NNW 7 11 30.15 1021 10 16.09344 0 0
4:55 pm 16:55 Cloudy 34 1 30 -1 87 87 NNW 6 9 30.15 1021 10 16.09344 0 0
5:15 pm 17:15 Partly Cloudy 34 1 30 -1 87 87 NNW 5 7 30.15 1021 10 16.09344 0 0
5:35 pm 17:35 Mostly Cloudy 34 1 30 -1 87 87 NNW 5 7 30.18 1022 10 16.09344 0 0
5:55 pm 17:55 Mostly Cloudy 34 1 30 -1 87 87 Calm 30.18 1022 10 16.09344 0 0
6:15 pm 18:15 Partly Cloudy 32 0 32 0 100 100 Calm 30.18 1022 10 16.09344 0 0
6:35 pm 18:35 Clear 32 0 30 -1 93 93 Calm 30.18 1022 10 16.09344 0 0
6:55 pm 18:55 Clear 32 0 30 -1 93 93 W 3 6 30.18 1022 10 16.09344 0 0
7:15 pm 19:15 Clear 30 -1 30 -1 100 100 W 3 6 30.21 1023 10 16.09344 0 0
7:35 pm 19:35 Clear 30 -1 30 -1 100 100 Calm 30.21 1023 10 16.09344 0 0
7:55 pm 19:55 Clear 30 -1 30 -1 100 100 WNW 3 6 30.21 1023 10 16.09344 0 0
8:15 pm 20:15 Clear 28 -2 28 -2 100 100 W 5 7 30.21 1023 10 16.09344 0 0
8:35 pm 20:35 Clear 30 -1 30 -1 100 100 WNW 3 6 30.24 1024 10 16.09344 0 0
8:55 pm 20:55 Clear 30 -1 30 -1 100 100 W 3 6 30.24 1024 10 16.09344 0 0
9:15 pm 21:15 Clear 28 -2 28 -2 100 100 W 5 7 30.24 1024 10 16.09344 0 0
9:35 pm 21:35 Clear 28 -2 28 -2 100 100 WNW 5 7 30.24 1024 10 16.09344 0 0
9:55 pm 21:55 Clear 30 -1 28 -2 93 93 Calm 30.24 1024 10 16.09344 0 0
10:15 pm 22:15 Clear 30 -1 27 -3 86 86 Calm 30.24 1024 10 16.09344 0 0
10:35 pm 22:35 Mostly Cloudy 30 -1 27 -3 86 86 NNW 6 9 30.27 1025 10 16.09344 0 0
10:55 pm 22:55 Cloudy 32 0 27 -3 80 80 Calm 30.27 1025 10 16.09344 0 0
11:15 pm 23:15 Cloudy 30 -1 27 -3 86 86 NW 5 7 30.27 1025 10 16.09344 0 0
11:35 pm 23:35 Cloudy 30 -1 27 -3 86 86 S 5 7 30.27 1025 10 16.09344 0 0
11:55 pm 23:55 Mostly Cloudy 30 -1 27 -3 86 86 Calm 30.27 1025 10 16.09344 0 0

Powered by AerisWeather